User: anonymous   Login
Location: Unspecified
(0.0000°N, 0.0000°E)
Time: 17:56:22
(UTC+00:00)
Language:

N. Korean satellite - Orbit

View from above orbital plane
View from above orbital plane
View from above satellite
View from above satellite

Ground track
Ground track

The orbit data is extracted from the following two-line orbital elements,

1 39026U 12072A   15209.87649036  .00003717  00000-0  16773-3 0  9997
2 39026 097.2812 240.0180 0047663 089.3927 271.2769 15.20572728145047
Epoch (UTC): 28 July 2015 21:02:08
Eccentricity: 0.0047663
inclination: 97.2812°
perigee height: 471 km
apogee height: 537 km
right ascension of ascending node: 240.0180°
argument of perigee: 89.3927°
revolutions per day: 15.20572728
mean anomaly at epoch: 271.2769°
orbit number at epoch: 14504

The dashed part of the orbit path shows where the satellite is in the earth's shadow,  

DLR